Regional Weather Roundup
Issued by NWS Sterling, VA

Home | Current Version | Previous Version | Graphics & Text | Print | Product List | Glossary On
Versions: 1 2 3 4 5 6 7 8 9 10 11 12 13 14 15 16 17 18 19 20 21 22 23 24 25 26 27 28 29 30 31 32 33 34 35 36 37 38 39 40 41 42 43 44 45 46 47 48 49 50
952
ASUS41 KLWX 282211
RWRLWX

REGIONAL WEATHER ROUNDUP
NATIONAL WEATHER SERVICE BALTIMORE MD/WASHINGTON DC
600 PM EDT TUE MAR 28 2017

Note: "FAIR" indicates few or no clouds below 12,000 feet
with no significant weather and/or obstructions to visibility.
 TC=TEMPERATURE CELSIUS

 * =Non NWS site. Station does not report precipitation (e.g. rain,
    snow, etc.), thunder, or fog.

DCZ001-MDZ009-015-VAZ040>042-051-053>054-282300-
WASHINGTON METRO

CITY           SKY/WX    TMP DP  RH WIND       PRES   REMARKS
WASHINGTON NAT PTSUNNY   72  54  53 NW13      29.84R
DULLES         CLOUDY    68  54  60 NW6       29.85R
ANDREWS AFB    MOSUNNY   71  53  52 NW12      29.83R
FT BELVOIR     LGT RAIN  72  54  53 NW7       29.84R
QUANTICO       LGT RAIN  64  57  78 CALM      29.85R
COLLEGE PARK*  CLOUDY    69  53  55 N5        29.83R
LEESBURG*      LGT RAIN  66  63  88 W5        29.86R
MANASSAS*        N/A    N/A N/A N/A N9        29.85R

$$

MDZ006>007-011-014-282300-
BALTIMORE METRO

CITY           SKY/WX    TMP DP  RH WIND       PRES   REMARKS
BWI AIRPORT    PTSUNNY   67  56  67 NW5       29.83R
MD SCIENCE CTR   N/A     69  54  58 MISG      29.83R
MARTIN STATE   PTSUNNY   66  59  77 NW9       29.85R
ANNAPOLIS      MOSUNNY   68  54  60 NW6       29.83R
FORT MEADE*    PTSUNNY   68  54  60 W3        29.86R

$$

MDZ012-015-019>023-282300-
MARYLAND EASTERN SHORE

CITY           SKY/WX    TMP DP  RH WIND       PRES   REMARKS
OCEAN CITY     PTSUNNY   57  51  80 S6        29.82R
SALISBURY      MOSUNNY   68  58  70 W8        29.82S
BAY BRIDGE AP* SUNNY     66  55  68 N8        29.83S
CAMBRIDGE*     SUNNY     66  59  77 SW3       29.83R
EASTON*        MOSUNNY   72  55  56 N7        29.86R

$$

MDZ017>025-282300-
SOUTHERN MARYLAND

CITY           SKY/WX    TMP DP  RH WIND       PRES   REMARKS
PATUXENT RIVER PTSUNNY   66  62  87 SW3       29.83R
ST INIGOES     CLOUDY    69  58  67 N3        29.83R
LEONARDTOWN*   CLOUDY    64  59  82 CALM      29.85R

$$

MDZ003>005-282300-
NORTH CENTRAL MARYLAND

CITY           SKY/WX    TMP DP  RH WIND       PRES   REMARKS
FREDERICK*     CLOUDY    68  59  73 N8        29.87F
HAGERSTOWN APT CLOUDY    63  58  83 N9        29.86R
WESTMINSTER*   CLOUDY    63  57  82 N6        29.86R

$$

MDZ501>502-282300-
WESTERN MARYLAND

CITY           SKY/WX    TMP DP  RH WIND       PRES   REMARKS
OAKLAND*       CLOUDY    50  50 100 NW7       29.94R FOG
CUMBERLAND*    CLOUDY    64  55  72 CALM      29.92R

$$

VAZ025>031-282300-
SHENANDOAH VALLEY

CITY           SKY/WX    TMP DP  RH WIND       PRES   REMARKS
WINCHESTER*    PTSUNNY   64  54  68 NW7       29.85S
FRONT ROYAL*   PTSUNNY   63  59  88 CALM      29.85S
LURAY*         CLOUDY    68  59  73 W3        29.86R
NEW MARKET*    CLOUDY    64  57  78 CALM      29.86R
STAUNTON*      CLOUDY    66  54  65 E3        29.89R
WAYNESBORO*    CLOUDY    68  52  55 NW3       29.87S

$$

WVZ021-048>050-054>055-282300-
EASTERN WEST VIRGINIA PANHANDLE

CITY           SKY/WX    TMP DP  RH WIND       PRES   REMARKS
MARTINSBURG    CLOUDY    68  54  60 N5        29.85R
PETERSBURG*    CLOUDY    68  53  58 W6        29.88R

$$

VAZ036>039-050-282300-
CENTRAL FOOTHILLS

CITY           SKY/WX    TMP DP  RH WIND       PRES   REMARKS
CHARLOTTESVILL CLOUDY    66  57  72 NE8       29.85R
CULPEPER*      CLOUDY    65  64  94 CALM      29.86S
ORANGE*        CLOUDY    64  59  82 CALM      29.87R
GORDONSVILLE*  CLOUDY    63  60  92 W5        29.86R
WARRENTON*     CLOUDY    66  60  79 SW3       29.85R

$$

VAZ055>057-282300-
NORTH AND CENTRAL PIEDMONT

CITY           SKY/WX    TMP DP  RH WIND       PRES   REMARKS
FREDERICKSBRG* MOSUNNY   70  57  63 N3        29.83S
STAFFORD*      PTSUNNY   67  59  74 CALM      29.88S

$$

NCZ024-NYZ072-PAZ021-071-VAZ022-071-282300-
OTHER REGIONAL OBSERVATIONS

CITY           SKY/WX    TMP DP  RH WIND       PRES   REMARKS
NEW YORK CITY  CLOUDY    42  40  92 NE8       29.91S
PHILADELPHIA   LGT RAIN  52  50  93 NE8       29.85S FOG
PITTSBURGH     CLOUDY    56  49  77 NW15      29.96R
ROANOKE        PTSUNNY   70  48  45 NW17      29.91R
RICHMOND       PTSUNNY   68  59  73 S8        29.83S
RALEIGH        PTSUNNY   75  52  44 VRB5      29.86R

$$

ANZ530>537-282300-
MARINE OBSERVATIONS

STATION/POSITION TIME  TEMP    WIND        PRES
                       AIR SEA DIR/SP/G
                 (UTC) (F)     (DEG/KT/KT) (MB)
THOMAS PT LIGHT  2200   63 47   40/  8/  8   N/A
BALT KEY BRIDGE  2148   65     340/  4/  5 1010.0R
COVE POINT       2148   61     170/  1/  1 1010.8R
LEWISETTA        2148   62 53   70/  3/  3 1010.0R
SOLOMONS ISLAND  2148   58 48  100/  3/  4   N/A
PINEY POINT      2148          340/  4/  4   N/A

$$





USA.gov is the U.S. government's official web portal to all federal, state and local government web resources and services.